WB7TUJ Weather Reports


Display with metric or nautical units.
time (UTC)temp
F
wind
direction
speed
MPH
gust
MPH
rain 1hr
in
rain 24hr
in
rain mn
in
humidity
%
barometer
mb
20260510074508 82 279 0.0 0.0 0.00 0.00 0.00 22 964.0
20260510073014 84 279 0.0 0.0 0.00 0.00 0.00 20 964.0
20260510071501 85 279 0.0 0.0 0.00 0.00 0.00 21 963.9
20260510070058 87 279 0.0 0.0 0.00 0.00 0.00 18 963.9
20260510064604 87 279 0.0 0.0 0.00 0.00 0.00 18 963.8
20260510063056 87 279 0.0 0.0 0.00 0.00 0.00 19 963.8
20260510061559 88 279 0.0 0.0 0.00 0.00 0.00 17 963.6
20260510060056 88 279 0.0 0.0 0.00 0.00 0.00 17 963.5
20260510054555 89 279 0.0 0.0 0.00 0.00 0.00 17 963.4
20260510053055 90 279 0.0 0.0 0.00 0.00 0.00 16 963.4
20260510051603 91 279 0.0 0.0 0.00 0.00 0.00 16 963.2
20260510050054 90 268 0.0 0.0 0.00 0.00 0.00 16 963.1
20260510044604 91 257 0.0 0.0 0.00 0.00 0.00 16 963.0
20260510043053 92 258 0.0 0.0 0.00 0.00 0.00 16 962.9
20260510041552 93 258 0.0 0.0 0.00 0.00 0.00 15 962.8
20260510040053 93 258 0.0 0.0 0.00 0.00 0.00 15 962.6
20260510034552 94 258 0.0 0.0 0.00 0.00 0.00 15 962.4
20260510033058 95 257 0.0 0.0 0.00 0.00 0.00 15 962.3
20260510031550 95 257 0.0 2.0 0.00 0.00 0.00 14 962.1
20260510030100 96 265 0.0 9.0 0.00 0.00 0.00 14 961.9
20260510024550 96 259 0.0 11.0 0.00 0.00 0.00 14 961.7
20260510023050 97 267 3.0 12.0 0.00 0.00 0.00 14 961.6
20260510021548 98 277 4.0 11.0 0.00 0.00 0.00 14 961.5
20260510020048 98 265 7.0 15.0 0.00 0.00 0.00 14 961.5
20260510014546 99 260 4.0 14.0 0.00 0.00 0.00 14 961.3
20260510013046 99 249 8.0 15.0 0.00 0.00 0.00 14 961.3
20260510011548 100 281 9.0 13.0 0.00 0.00 0.00 14 961.3
20260510010044 100 259 7.0 14.0 0.00 0.00 0.00 14 961.4
20260510004548 101 269 0.0 18.0 0.00 0.00 0.00 14 961.4
20260510003043 101 284 3.0 14.0 0.00 0.00 0.00 13 961.4
20260510001541 101 279 10.0 16.0 0.00 0.00 0.00 13 961.5
20260510000043 101 288 8.0 13.0 0.00 0.00 0.00 14 961.5
20260509234542 101 286 1.0 16.0 0.00 0.00 0.00 13 961.6
20260509233038 101 290 2.0 16.0 0.00 0.00 0.00 13 961.7
20260509231540 102 301 2.0 14.0 0.00 0.00 0.00 13 961.8
20260509230033 102 134 0.0 12.0 0.00 0.00 0.00 13 961.9
20260509224533 101 250 3.0 10.0 0.00 0.00 0.00 14 962.2
20260509223031 101 249 7.0 13.0 0.00 0.00 0.00 14 962.4
20260509221525 101 234 4.0 12.0 0.00 0.00 0.00 14 962.6
20260509220027 100 246 4.0 14.0 0.00 0.00 0.00 14 962.9
20260509214522 100 258 4.0 15.0 0.00 0.00 0.00 14 963.2
20260509213020 100 238 0.0 12.0 0.00 0.00 0.00 15 963.3
20260509211518 100 297 4.0 14.0 0.00 0.00 0.00 15 963.6
20260509210015 99 278 2.0 12.0 0.00 0.00 0.00 16 963.8
20260509204511 99 261 1.0 10.0 0.00 0.00 0.00 15 964.0
20260509203011 98 281 2.0 12.0 0.00 0.00 0.00 16 964.2
20260509201508 98 287 0.0 9.0 0.00 0.00 0.00 17 964.5
20260509200006 97 196 2.0 10.0 0.00 0.00 0.00 17 964.8
20260509194504 96 211 1.0 11.0 0.00 0.00 0.00 18 964.9
20260509193002 96 215 0.0 8.0 0.00 0.00 0.00 18 965.1
20260509191600 95 229 0.0 5.0 0.00 0.00 0.00 18 965.3
20260509190058 94 236 0.0 0.0 0.00 0.00 0.00 18 965.5
20260509184558 94 223 1.0 6.0 0.00 0.00 0.00 18 965.7
20260509183055 93 215 0.0 2.0 0.00 0.00 0.00 20 965.8
20260509181600 93 161 1.0 7.0 0.00 0.00 0.00 19 966.1
20260509180053 93 87 0.0 0.0 0.00 0.00 0.00 20 966.3
20260509174552 93 85 0.0 5.0 0.00 0.00 0.00 20 966.4
20260509173050 92 80 0.0 0.0 0.00 0.00 0.00 21 966.5
20260509171551 91 80 0.0 0.0 0.00 0.00 0.00 21 966.6
20260509170051 90 78 0.0 0.0 0.00 0.00 0.00 22 966.7
20260509164545 88 78 0.0 0.0 0.00 0.00 0.00 23 966.6
20260509163040 87 78 0.0 0.0 0.00 0.00 0.00 23 966.6
20260509161537 86 78 0.0 0.0 0.00 0.00 0.00 24 966.6
20260509160038 85 78 0.0 0.0 0.00 0.00 0.00 25 966.6
20260509154534 84 78 0.0 0.0 0.00 0.00 0.00 26 966.6
20260509153037 83 78 0.0 0.0 0.00 0.00 0.00 27 966.6
20260509151526 81 78 0.0 0.0 0.00 0.00 0.00 27 966.7
20260509150025 80 78 0.0 0.0 0.00 0.00 0.00 28 966.6
20260509144531 80 78 0.0 0.0 0.00 0.00 0.00 28 966.7
20260509143023 78 78 0.0 0.0 0.00 0.00 0.00 29 966.5
20260509141521 78 78 0.0 0.0 0.00 0.00 0.00 28 966.4
20260509140020 77 78 0.0 0.0 0.00 0.00 0.00 29 966.3
20260509134519 75 82 0.0 0.0 0.00 0.00 0.00 30 966.2
20260509133016 74 81 0.0 0.0 0.00 0.00 0.00 29 966.0
20260509131515 73 84 0.0 0.0 0.00 0.00 0.00 30 965.8
20260509130013 73 84 0.0 0.0 0.00 0.00 0.00 30 965.7
20260509124512 73 84 0.0 0.0 0.00 0.00 0.00 30 965.5
20260509123017 73 84 0.0 0.0 0.00 0.00 0.00 30 965.2
20260509121506 73 84 0.0 0.0 0.00 0.00 0.00 30 965.1
20260509120004 73 84 0.0 0.0 0.00 0.00 0.00 29 964.8
20260509114502 73 84 0.0 0.0 0.00 0.00 0.00 30 964.7
20260509113001 73 84 0.0 0.0 0.00 0.00 0.00 30 964.8
20260509111559 74 84 0.0 0.0 0.00 0.00 0.00 29 964.8
20260509104557 74 84 0.0 0.0 0.00 0.00 0.00 31 964.5
20260509103101 74 84 0.0 0.0 0.00 0.00 0.00 34 964.5
20260509101558 74 248 0.0 0.0 0.00 0.00 0.00 34 964.5
20260509100052 75 248 0.0 0.0 0.00 0.00 0.00 33 964.4
20260509094548 76 248 0.0 0.0 0.00 0.00 0.00 32 964.4
20260509093045 76 248 0.0 0.0 0.00 0.00 0.00 33 964.5
20260509091553 76 248 0.0 0.0 0.00 0.00 0.00 33 964.6
20260509090045 77 248 0.0 0.0 0.00 0.00 0.00 32 964.6
20260509084545 77 248 0.0 0.0 0.00 0.00 0.00 32 964.4
20260509083035 78 248 0.0 0.0 0.00 0.00 0.00 32 964.4
20260509081534 79 248 0.0 0.0 0.00 0.00 0.00 30 964.4
20260509080035 80 248 0.0 0.0 0.00 0.00 0.00 29 964.3